Location: Gleizolles
(44.4833°N, 6.7667°E)
Time: 01:51:33
(UTC+00:00)

ISS - Visible Passes

Search period start: 22 May 2024 00:00
Search period end: 01 June 2024 00:00
Orbit: 409 x 414 km, 51.6° (Epoch: 21 May)

Date Brightness Start Highest point End Pass type
(mag) Time Alt. Az. Time Alt. Az. Time Alt. Az.
22 May -1.9 19:44:22 10° NW 19:47:15 26° N 19:50:08 10° ENE visible
22 May -3.9 21:20:54 10° WNW 21:24:14 83° NNE 21:24:34 70° E visible
23 May -3.2 20:30:54 10° NW 20:34:11 53° NNE 20:36:17 20° E visible
23 May -1.5 22:07:52 10° W 22:09:04 17° W 22:09:04 17° W visible
24 May -2.6 19:40:52 10° NW 19:44:01 37° NNE 19:47:09 10° E visible
24 May -3.2 21:17:32 10° WNW 21:20:41 42° SW 21:20:46 41° SSW visible
25 May -3.8 20:27:18 10° WNW 20:30:38 73° SSW 20:32:28 24° SE visible
26 May -3.6 19:37:08 10° WNW 19:40:28 70° NNE 19:43:46 10° ESE visible
26 May -1.8 21:14:27 10° W 21:16:45 18° SW 21:16:56 18° SW visible
27 May -2.5 20:23:46 10° WNW 20:26:44 30° SW 20:28:39 17° S visible
29 May -1.3 20:20:54 10° WSW 20:22:28 13° SW 20:24:02 10° SSW visible
